Starlink 5484

operational
NORAD ID: 55628 Int'l Des: 2023-021 Owner: SPXS Country: US Constellation: starlink
LEOCIRCULAR

About Starlink 5484

Description loading...

Live Position

Loading 3D Globe...

Upcoming Passes

Altitude History

Altitude vs Time

uPlot chart will show altitude changes over time

Two-Line Element Set

1 55628U 23021A 25257.49372686 -.00001255 00000-0 -97407-4 0 9996
2 55628 69.9975 288.7945 0003554 269.9723 90.1029 14.98330753141900
Epoch: Sep 14, 2025 • Age: 24 hours

Current Status

Altitude 593.4 km
Velocity 7.56 km/s
Sub-Earth Point -63.51°S, 71.59°E
Launch Date Feb 17, 2023
Age 2.5 years
Type internet

Technical Details

Classification Payload
Mass 305.00 kg
Dry Mass 290.00 kg
Total Mass 305.00 kg
Length 0.20 m
Diameter 2.80 m
Span 9.00 m
Shape Box + pan
Manufacturer SPXS
Bus Type Starlink
Phase Status In Orbit
Owner/State SPXS/US

Large Constellations

Loading constellations...